CREW DRAGON 7 (57697 NORAD) Tracking and Keplerian Element Data

This shows tracking and keplerian element data for the satellite.

Feedback or suggestion? Click here.




ElementValue
Catalog57697
NameCREW DRAGON 7
Epoch Orbit14
Epoch Day239.18899399
Epoch Year2023
RAAN336.7662
Inclination51.633
Eccentricity0.004541
Argument of Perigee209.6947
Mean Anonmoly239.3583
Mean Motion16.16057262
Decay Rate-3.71E-05
L11 57697U 23128A 23239.18899399 -.00003710 11731-4 00000+0 0 9993
L22 57697 51.6330 336.7662 0045410 209.6947 239.3583 16.16057262 142



Live tracking and technical data element details for CREW DRAGON 7 (NORAD 57697). CREW DRAGON 7 can be tracked NOW for your location showing map with azimuth and elevation plus other details from your city location.







IsCatalogInMostPopularTable: catalog: 57697, numindb: 182
Update: records affected: 1



GetName: 57697 CREW DRAGON 7

Hit Count: updated at: Mon, 04 Dec 2023 02:48:19 GMT